Time,TemperatureF,DewpointF,PressureIn,WindDirection,WindDirectionDegrees,WindSpeedMPH,WindSpeedGustMPH,Humidity,HourlyPrecipIn,Conditions,Clouds,dailyrainin,SoftwareType,DateUTC
2013-01-29 00:03:00,43.0,42.0,30.27,NNW,348,0.0,0.0,95,0.00,,,0.00,,2013-01-29 05:03:00,
2013-01-29 00:12:00,43.0,42.0,30.27,NNW,348,0.0,0.0,95,0.00,,,0.00,,2013-01-29 05:12:00,
2013-01-29 00:22:00,43.0,42.0,30.27,NNW,348,0.0,1.0,95,0.00,,,0.00,,2013-01-29 05:22:00,
2013-01-29 00:32:00,43.0,42.0,30.27,NNW,348,0.0,1.0,96,0.00,,,0.00,,2013-01-29 05:32:00,
2013-01-29 00:42:00,43.0,42.0,30.27,NNW,348,0.0,1.0,96,0.00,,,0.00,,2013-01-29 05:42:00,
2013-01-29 00:52:00,43.0,42.0,30.27,NNW,348,0.0,0.0,96,0.00,,,0.00,,2013-01-29 05:52:00,
2013-01-29 01:02:00,43.0,42.0,30.27,NNW,348,0.0,1.0,96,0.00,,,0.00,,2013-01-29 06:02:00,
2013-01-29 01:11:00,43.0,42.0,30.27,NNW,348,0.0,1.0,96,0.00,,,0.00,,2013-01-29 06:11:00,
2013-01-29 01:21:00,43.0,42.0,30.27,NNW,348,0.0,0.0,96,0.00,,,0.00,,2013-01-29 06:21:00,
2013-01-29 01:32:00,42.0,41.0,30.27,NNW,348,0.0,0.0,96,0.00,,,0.00,,2013-01-29 06:32:00,
2013-01-29 01:42:00,42.0,41.0,30.27,NNW,348,0.0,0.0,96,0.00,,,0.00,,2013-01-29 06:42:00,
2013-01-29 01:52:00,42.0,41.0,30.26,NNW,348,0.0,0.0,97,0.00,,,0.00,,2013-01-29 06:52:00,
2013-01-29 02:02:00,42.0,41.0,30.26,NNW,348,0.0,1.0,96,0.00,,,0.00,,2013-01-29 07:02:00,
2013-01-29 02:11:00,42.0,41.0,30.26,NNW,348,0.0,1.0,96,0.00,,,0.00,,2013-01-29 07:11:00,
2013-01-29 02:21:00,41.0,40.0,30.26,NNW,348,0.0,0.0,97,0.00,,,0.00,,2013-01-29 07:21:00,
2013-01-29 02:32:00,42.0,41.0,30.26,NNW,348,0.0,0.0,97,0.00,,,0.00,,2013-01-29 07:32:00,
2013-01-29 02:42:00,42.0,41.0,30.26,NNW,348,0.0,0.0,97,0.00,,,0.00,,2013-01-29 07:42:00,
2013-01-29 02:52:00,43.0,42.0,30.26,NNW,348,0.0,0.0,97,0.00,,,0.00,,2013-01-29 07:52:00,
2013-01-29 03:02:00,43.0,42.0,30.26,NNW,348,0.0,0.0,97,0.00,,,0.00,,2013-01-29 08:02:00,
2013-01-29 03:11:00,43.0,42.0,30.26,NNW,348,0.0,0.0,97,0.00,,,0.00,,2013-01-29 08:11:00,
2013-01-29 03:21:00,43.0,42.0,30.25,NW,323,1.0,4.0,97,0.00,,,0.00,,2013-01-29 08:21:00,
2013-01-29 03:32:00,43.0,42.0,30.25,NW,323,0.0,0.0,97,0.00,,,0.00,,2013-01-29 08:32:00,
2013-01-29 03:42:00,43.0,42.0,30.25,NW,323,0.0,0.0,97,0.00,,,0.00,,2013-01-29 08:42:00,
2013-01-29 03:52:00,44.0,43.0,30.24,NW,323,0.0,0.0,97,0.00,,,0.00,,2013-01-29 08:52:00,
2013-01-29 04:02:00,44.0,43.0,30.24,NW,323,0.0,0.0,97,0.00,,,0.00,,2013-01-29 09:02:00,
2013-01-29 04:11:00,44.0,43.0,30.24,NW,323,0.0,0.0,97,0.00,,,0.00,,2013-01-29 09:11:00,
2013-01-29 04:21:00,44.0,43.0,30.24,NW,323,0.0,0.0,97,0.00,,,0.00,,2013-01-29 09:21:00,
2013-01-29 04:32:00,44.0,43.0,30.24,NW,323,0.0,0.0,97,0.00,,,0.00,,2013-01-29 09:32:00,
2013-01-29 04:42:00,44.0,43.0,30.24,NW,323,0.0,0.0,97,0.00,,,0.00,,2013-01-29 09:42:00,
2013-01-29 04:51:00,45.0,44.0,30.24,NW,323,0.0,0.0,98,0.00,,,0.00,,2013-01-29 09:51:00,
2013-01-29 05:02:00,45.0,44.0,30.24,NW,323,0.0,0.0,98,0.00,,,0.00,,2013-01-29 10:02:00,
2013-01-29 05:11:00,45.0,44.0,30.24,NW,323,0.0,0.0,98,0.00,,,0.00,,2013-01-29 10:11:00,
2013-01-29 05:21:00,46.0,45.0,30.23,NW,323,0.0,0.0,98,0.00,,,0.00,,2013-01-29 10:21:00,
2013-01-29 05:32:00,46.0,45.0,30.23,NW,323,0.0,0.0,98,0.00,,,0.00,,2013-01-29 10:32:00,
2013-01-29 05:42:00,46.0,45.0,30.23,NW,323,0.0,0.0,98,0.00,,,0.00,,2013-01-29 10:42:00,
2013-01-29 05:52:00,46.0,45.0,30.22,NW,323,0.0,0.0,98,0.00,,,0.00,,2013-01-29 10:52:00,
2013-01-29 06:02:00,47.0,46.0,30.22,NW,323,0.0,0.0,98,0.00,,,0.00,,2013-01-29 11:02:00,
2013-01-29 06:12:00,47.0,46.0,30.22,NW,323,0.0,0.0,98,0.00,,,0.00,,2013-01-29 11:12:00,
2013-01-29 06:22:00,46.0,45.0,30.23,NW,323,0.0,0.0,98,0.00,,,0.00,,2013-01-29 11:22:00,
2013-01-29 06:32:00,46.0,45.0,30.22,NW,323,0.0,0.0,98,0.00,,,0.00,,2013-01-29 11:32:00,
2013-01-29 06:42:00,46.0,45.0,30.22,NW,323,0.0,0.0,98,0.00,,,0.00,,2013-01-29 11:42:00,
2013-01-29 06:52:00,46.0,45.0,30.22,NW,323,0.0,0.0,98,0.00,,,0.00,,2013-01-29 11:52:00,
2013-01-29 07:03:00,46.0,45.0,30.22,NW,323,0.0,0.0,98,0.00,,,0.00,,2013-01-29 12:03:00,
2013-01-29 07:12:00,46.0,45.0,30.22,NW,323,0.0,0.0,98,0.00,,,0.00,,2013-01-29 12:12:00,
2013-01-29 07:22:00,47.0,46.0,30.22,NW,323,0.0,0.0,98,0.00,,,0.00,,2013-01-29 12:22:00,
2013-01-29 07:33:00,47.0,46.0,30.23,NW,323,0.0,0.0,98,0.00,,,0.00,,2013-01-29 12:33:00,
2013-01-29 07:43:00,47.0,46.0,30.23,NW,323,0.0,0.0,98,0.00,,,0.00,,2013-01-29 12:43:00,
2013-01-29 07:52:00,47.0,46.0,30.22,NW,323,0.0,0.0,98,0.00,,,0.00,,2013-01-29 12:52:00,
2013-01-29 08:02:00,47.0,46.0,30.22,NW,323,0.0,0.0,98,0.00,,,0.00,,2013-01-29 13:02:00,
2013-01-29 08:12:00,47.0,46.0,30.22,NW,323,0.0,0.0,98,0.00,,,0.00,,2013-01-29 13:12:00,
2013-01-29 08:23:00,48.0,47.0,30.22,NW,323,0.0,0.0,98,0.00,,,0.00,,2013-01-29 13:23:00,
2013-01-29 08:32:00,48.0,47.0,30.22,NW,323,0.0,0.0,98,0.00,,,0.00,,2013-01-29 13:32:00,
2013-01-29 08:43:00,48.0,47.0,30.22,NW,323,0.0,0.0,98,0.00,,,0.00,,2013-01-29 13:43:00,
2013-01-29 08:52:00,50.0,49.0,30.22,NW,323,0.0,0.0,98,0.00,,,0.00,,2013-01-29 13:52:00,
2013-01-29 09:02:00,50.0,49.0,30.22,NW,323,0.0,0.0,98,0.00,,,0.00,,2013-01-29 14:02:00,
2013-01-29 09:12:00,52.0,51.0,30.22,NW,323,0.0,0.0,98,0.00,,,0.00,,2013-01-29 14:12:00,
2013-01-29 09:22:00,52.0,51.0,30.22,NW,323,0.0,0.0,98,0.00,,,0.00,,2013-01-29 14:22:00,
2013-01-29 09:33:00,52.0,51.0,30.22,NW,323,0.0,0.0,98,0.00,,,0.00,,2013-01-29 14:33:00,
2013-01-29 09:43:00,52.0,51.0,30.22,NW,323,0.0,0.0,98,0.00,,,0.00,,2013-01-29 14:43:00,
2013-01-29 09:52:00,54.0,53.0,30.22,NW,323,0.0,0.0,97,0.00,,,0.00,,2013-01-29 14:52:00,
2013-01-29 10:03:00,54.0,53.0,30.22,NW,323,0.0,0.0,97,0.00,,,0.00,,2013-01-29 15:03:00,
2013-01-29 10:12:00,54.0,53.0,30.22,NW,323,0.0,0.0,97,0.00,,,0.00,,2013-01-29 15:12:00,
2013-01-29 10:22:00,59.0,56.0,30.22,WNW,298,0.0,2.0,89,0.00,,,0.00,,2013-01-29 15:22:00,
2013-01-29 10:33:00,60.0,56.0,30.22,West,271,1.0,3.0,88,0.00,,,0.00,,2013-01-29 15:33:00,
2013-01-29 10:43:00,60.0,56.0,30.22,West,271,1.0,3.0,88,0.00,,,0.00,,2013-01-29 15:43:00,
2013-01-29 10:53:00,60.0,56.0,30.22,SW,215,2.0,6.0,86,0.00,,,0.00,,2013-01-29 15:53:00,
2013-01-29 11:03:00,61.0,57.0,30.22,SW,232,1.0,5.0,86,0.00,,,0.00,,2013-01-29 16:03:00,
2013-01-29 11:13:00,61.0,57.0,30.22,SW,232,1.0,5.0,86,0.00,,,0.00,,2013-01-29 16:13:00,
2013-01-29 11:23:00,61.0,56.0,30.23,SW,229,1.0,4.0,85,0.00,,,0.00,,2013-01-29 16:23:00,
2013-01-29 11:33:00,61.0,57.0,30.22,SSW,209,2.0,5.0,86,0.00,,,0.00,,2013-01-29 16:33:00,
2013-01-29 11:43:00,61.0,57.0,30.22,SSW,209,2.0,5.0,86,0.00,,,0.00,,2013-01-29 16:43:00,
2013-01-29 11:52:00,60.0,56.0,30.22,SW,225,1.0,4.0,88,0.00,,,0.00,,2013-01-29 16:52:00,
2013-01-29 12:03:00,61.0,57.0,30.22,West,265,1.0,5.0,88,0.00,,,0.00,,2013-01-29 17:03:00,
2013-01-29 12:12:00,61.0,57.0,30.22,West,265,1.0,5.0,88,0.00,,,0.00,,2013-01-29 17:12:00,
2013-01-29 12:22:00,61.0,57.0,30.20,SW,233,1.0,6.0,88,0.00,,,0.00,,2013-01-29 17:22:00,
2013-01-29 12:33:00,62.0,57.0,30.19,SSW,202,4.0,8.0,85,0.00,,,0.00,,2013-01-29 17:33:00,
2013-01-29 12:42:00,62.0,57.0,30.19,SSW,202,4.0,8.0,85,0.00,,,0.00,,2013-01-29 17:42:00,
2013-01-29 12:52:00,63.0,58.0,30.17,SSW,211,4.0,7.0,84,0.00,,,0.00,,2013-01-29 17:52:00,
2013-01-29 13:04:00,65.0,59.0,30.16,South,169,4.0,9.0,80,0.00,,,0.00,,2013-01-29 18:04:00,
2013-01-29 13:13:00,65.0,59.0,30.16,South,169,4.0,9.0,80,0.00,,,0.00,,2013-01-29 18:13:00,
2013-01-29 13:22:00,65.0,59.0,30.16,SW,227,4.0,9.0,80,0.00,,,0.00,,2013-01-29 18:22:00,
2013-01-29 13:33:00,66.0,59.0,30.15,SW,226,4.0,9.0,78,0.00,,,0.00,,2013-01-29 18:33:00,
2013-01-29 13:42:00,66.0,59.0,30.15,SW,226,4.0,9.0,78,0.00,,,0.00,,2013-01-29 18:42:00,
2013-01-29 13:52:00,67.0,59.0,30.14,SW,228,2.0,10.0,75,0.00,,,0.00,,2013-01-29 18:52:00,
2013-01-29 14:03:00,67.0,59.0,30.13,SW,234,3.0,12.0,75,0.00,,,0.00,,2013-01-29 19:03:00,
2013-01-29 14:12:00,67.0,59.0,30.13,SW,234,3.0,12.0,75,0.00,,,0.00,,2013-01-29 19:12:00,
2013-01-29 14:23:00,67.0,59.0,30.13,SSW,202,6.0,13.0,76,0.00,,,0.00,,2013-01-29 19:23:00,
2013-01-29 14:33:00,66.0,59.0,30.13,SW,234,3.0,11.0,79,0.00,,,0.00,,2013-01-29 19:33:00,
2013-01-29 14:42:00,66.0,59.0,30.13,SW,234,3.0,11.0,79,0.00,,,0.00,,2013-01-29 19:42:00,
2013-01-29 14:52:00,67.0,60.0,30.13,SW,235,1.0,5.0,78,0.00,,,0.00,,2013-01-29 19:52:00,
2013-01-29 15:03:00,68.0,60.0,30.12,SW,236,2.0,5.0,76,0.00,,,0.00,,2013-01-29 20:03:00,
2013-01-29 15:13:00,68.0,60.0,30.12,SW,236,2.0,5.0,76,0.00,,,0.00,,2013-01-29 20:13:00,
2013-01-29 15:22:00,68.0,60.0,30.11,South,175,3.0,7.0,75,0.00,,,0.00,,2013-01-29 20:22:00,
2013-01-29 15:33:00,68.0,59.0,30.11,SSW,210,4.0,9.0,73,0.00,,,0.00,,2013-01-29 20:33:00,
2013-01-29 15:42:00,68.0,59.0,30.11,SSW,210,4.0,9.0,73,0.00,,,0.00,,2013-01-29 20:42:00,
2013-01-29 15:53:00,68.0,59.0,30.10,SSW,213,3.0,9.0,73,0.00,,,0.00,,2013-01-29 20:53:00,
2013-01-29 16:03:00,69.0,59.0,30.10,SW,216,3.0,8.0,71,0.00,,,0.00,,2013-01-29 21:03:00,
2013-01-29 16:12:00,69.0,59.0,30.10,SW,216,3.0,8.0,71,0.00,,,0.00,,2013-01-29 21:12:00,
2013-01-29 16:22:00,68.0,59.0,30.09,WSW,238,2.0,8.0,73,0.00,,,0.00,,2013-01-29 21:22:00,
2013-01-29 16:34:00,68.0,59.0,30.09,SSW,211,1.0,5.0,72,0.00,,,0.00,,2013-01-29 21:34:00,
2013-01-29 16:42:00,68.0,59.0,30.09,SSW,211,1.0,5.0,72,0.00,,,0.00,,2013-01-29 21:42:00,
2013-01-29 16:52:00,68.0,59.0,30.09,SW,225,2.0,7.0,72,0.00,,,0.00,,2013-01-29 21:52:00,
2013-01-29 17:03:00,68.0,58.0,30.08,SSW,211,3.0,7.0,71,0.00,,,0.00,,2013-01-29 22:03:00,
2013-01-29 17:12:00,68.0,58.0,30.08,SSW,211,3.0,7.0,71,0.00,,,0.00,,2013-01-29 22:12:00,
2013-01-29 17:22:00,67.0,58.0,30.08,SW,235,1.0,4.0,73,0.00,,,0.00,,2013-01-29 22:22:00,
2013-01-29 17:33:00,66.0,58.0,30.08,SW,217,0.0,3.0,75,0.00,,,0.00,,2013-01-29 22:33:00,
2013-01-29 17:42:00,66.0,58.0,30.08,SW,217,0.0,3.0,75,0.00,,,0.00,,2013-01-29 22:42:00,
2013-01-29 17:53:00,66.0,58.0,30.08,SW,225,0.0,2.0,76,0.00,,,0.00,,2013-01-29 22:53:00,
2013-01-29 18:02:00,66.0,58.0,30.08,SW,225,0.0,1.0,76,0.00,,,0.00,,2013-01-29 23:02:00,
2013-01-29 18:12:00,66.0,58.0,30.08,SW,225,0.0,1.0,76,0.00,,,0.00,,2013-01-29 23:12:00,
2013-01-29 18:23:00,65.0,58.0,30.07,WSW,238,0.0,1.0,77,0.00,,,0.00,,2013-01-29 23:23:00,
2013-01-29 18:33:00,64.0,57.0,30.07,WSW,238,0.0,0.0,79,0.00,,,0.00,,2013-01-29 23:33:00,
2013-01-29 18:42:00,64.0,57.0,30.07,WSW,238,0.0,0.0,79,0.00,,,0.00,,2013-01-29 23:42:00,
2013-01-29 18:52:00,64.0,58.0,30.06,WSW,238,0.0,0.0,80,0.00,,,0.00,,2013-01-29 23:52:00,
2013-01-29 19:03:00,63.0,57.0,30.07,WSW,238,0.0,0.0,81,0.00,,,0.00,,2013-01-30 00:03:00,
2013-01-29 19:12:00,63.0,57.0,30.07,WSW,238,0.0,0.0,81,0.00,,,0.00,,2013-01-30 00:12:00,
2013-01-29 19:22:00,63.0,57.0,30.06,South,172,0.0,5.0,82,0.00,,,0.00,,2013-01-30 00:22:00,
2013-01-29 19:32:00,63.0,57.0,30.06,South,172,0.0,0.0,82,0.00,,,0.00,,2013-01-30 00:32:00,
2013-01-29 19:43:00,63.0,57.0,30.06,South,172,0.0,0.0,82,0.00,,,0.00,,2013-01-30 00:43:00,
2013-01-29 19:52:00,63.0,58.0,30.06,South,172,0.0,0.0,83,0.00,,,0.00,,2013-01-30 00:52:00,
2013-01-29 20:02:00,62.0,57.0,30.06,South,172,0.0,0.0,83,0.00,,,0.00,,2013-01-30 01:02:00,
2013-01-29 20:12:00,62.0,57.0,30.06,South,172,0.0,0.0,83,0.00,,,0.00,,2013-01-30 01:12:00,
2013-01-29 20:22:00,62.0,57.0,30.06,South,172,0.0,0.0,85,0.00,,,0.00,,2013-01-30 01:22:00,
2013-01-29 20:32:00,61.0,57.0,30.05,South,172,0.0,1.0,87,0.00,,,0.00,,2013-01-30 01:32:00,
2013-01-29 20:42:00,61.0,57.0,30.05,South,172,0.0,1.0,87,0.00,,,0.00,,2013-01-30 01:42:00,
2013-01-29 20:52:00,61.0,57.0,30.05,South,172,0.0,0.0,88,0.00,,,0.00,,2013-01-30 01:52:00,
2013-01-29 21:02:00,61.0,58.0,30.05,South,172,0.0,0.0,89,0.00,,,0.00,,2013-01-30 02:02:00,
2013-01-29 21:12:00,61.0,58.0,30.05,South,172,0.0,0.0,89,0.00,,,0.00,,2013-01-30 02:12:00,
2013-01-29 21:22:00,61.0,57.0,30.05,South,172,0.0,0.0,88,0.00,,,0.00,,2013-01-30 02:22:00,
2013-01-29 21:33:00,61.0,58.0,30.05,South,172,0.0,1.0,89,0.00,,,0.00,,2013-01-30 02:33:00,
2013-01-29 21:42:00,61.0,58.0,30.05,South,172,0.0,1.0,89,0.00,,,0.00,,2013-01-30 02:42:00,
2013-01-29 21:52:00,60.0,57.0,30.04,South,172,0.0,1.0,91,0.00,,,0.00,,2013-01-30 02:52:00,
2013-01-29 22:03:00,60.0,58.0,30.03,South,172,0.0,0.0,92,0.00,,,0.00,,2013-01-30 03:03:00,
2013-01-29 22:12:00,60.0,58.0,30.03,South,172,0.0,0.0,92,0.00,,,0.00,,2013-01-30 03:12:00,
2013-01-29 22:22:00,60.0,58.0,30.02,South,172,0.0,0.0,94,0.00,,,0.00,,2013-01-30 03:22:00,
2013-01-29 22:32:00,60.0,59.0,30.01,South,172,0.0,3.0,95,0.00,,,0.00,,2013-01-30 03:32:00,
2013-01-29 22:42:00,60.0,59.0,30.01,South,172,0.0,3.0,95,0.00,,,0.00,,2013-01-30 03:42:00,
2013-01-29 22:52:00,61.0,59.0,30.02,SSE,165,0.0,4.0,92,0.00,,,0.00,,2013-01-30 03:52:00,
2013-01-29 23:02:00,63.0,60.0,30.01,SSE,163,4.0,8.0,90,0.00,,,0.00,,2013-01-30 04:02:00,
2013-01-29 23:12:00,63.0,60.0,30.01,SSE,163,4.0,8.0,90,0.00,,,0.00,,2013-01-30 04:12:00,
2013-01-29 23:22:00,64.0,60.0,30.01,SSE,150,3.0,8.0,86,0.00,,,0.00,,2013-01-30 04:22:00,
2013-01-29 23:32:00,64.0,60.0,30.01,SSE,150,3.0,8.0,86,0.00,,,0.00,,2013-01-30 04:32:00,
2013-01-29 23:42:00,64.0,60.0,30.01,SSE,150,3.0,8.0,86,0.00,,,0.00,,2013-01-30 04:42:00,
2013-01-29 23:52:00,65.0,60.0,30.01,SSE,158,4.0,9.0,84,0.00,,,0.00,,2013-01-30 04:52:00,